N55CR KLAX-KPSP

Flight info

Callsign N55CR
Flight time 0h 40m
Altitude VFR
Route VFR N
Aircraft SF50/L-VGD/C

Departure

Time 2026-04-25 20:24
Airport Los Angeles International Airport (KLAX)

Arrival

Time 2026-04-25 21:04
Airport Palm Springs International Airport (KPSP)
Time Latitude Longitude Altitude Speed Heading
2026-04-25 20:23 34.03248 -118.59909 8034 ft 228 kts 307°
2026-04-25 20:24 34.04252 -118.61407 8411 ft 232 kts 304°
2026-04-25 20:24 34.05220 -118.62979 8788 ft 235 kts 301°
2026-04-25 20:24 34.05739 -118.64731 9461 ft 217 kts 271°
2026-04-25 20:24 34.05703 -118.66517 9833 ft 218 kts 262°
2026-04-25 20:25 34.05445 -118.68314 10324 ft 215 kts 254°
2026-04-25 20:25 34.05054 -118.70063 10565 ft 223 kts 252°
2026-04-25 20:25 34.04553 -118.71820 10930 ft 223 kts 245°
2026-04-25 20:25 34.03892 -118.73585 10885 ft 235 kts 244°
2026-04-25 20:26 34.03191 -118.75353 11123 ft 236 kts 244°
2026-04-25 20:26 34.02638 -118.77280 10976 ft 251 kts 257°
2026-04-25 20:26 34.02621 -118.79417 11033 ft 258 kts 275°
2026-04-25 20:26 34.03204 -118.81464 11072 ft 267 kts 294°
2026-04-25 20:27 34.04315 -118.83297 11208 ft 269 kts 302°
2026-04-25 20:27 34.05352 -118.85133 11272 ft 270 kts 302°
2026-04-25 20:27 34.06467 -118.86968 11339 ft 267 kts 298°
2026-04-25 20:27 34.07509 -118.88818 11421 ft 266 kts 298°
2026-04-25 20:28 34.08531 -118.90624 11494 ft 259 kts 299°
2026-04-25 20:28 34.09861 -118.92107 11552 ft 265 kts 325°
2026-04-25 20:28 34.11690 -118.92602 11608 ft 273 kts 358°
2026-04-25 20:28 34.13506 -118.91947 11646 ft 276 kts 27°
2026-04-25 20:29 34.14941 -118.90427 11662 ft 274 kts 56°
2026-04-25 20:29 34.15490 -118.88308 11663 ft 266 kts 94°
2026-04-25 20:29 34.15034 -118.86219 11678 ft 256 kts 116°
2026-04-25 20:29 34.14407 -118.84220 11689 ft 254 kts 116°
2026-04-25 20:30 34.13780 -118.82240 11692 ft 252 kts 116°
2026-04-25 20:30 34.13161 -118.80281 11704 ft 252 kts 116°
2026-04-25 20:30 34.12825 -118.78186 11699 ft 261 kts 89°
2026-04-25 20:30 34.12949 -118.76038 11719 ft 260 kts 89°
2026-04-25 20:31 34.13083 -118.73858 11721 ft 260 kts 89°
2026-04-25 20:31 34.13218 -118.71690 11726 ft 260 kts 89°
2026-04-25 20:31 34.13351 -118.69518 11735 ft 260 kts 89°
2026-04-25 20:31 34.13486 -118.67350 11746 ft 260 kts 89°
2026-04-25 20:32 34.13626 -118.65148 11763 ft 260 kts 89°
2026-04-25 20:32 34.13771 -118.62995 11773 ft 261 kts 89°
2026-04-25 20:32 34.13918 -118.60811 11784 ft 261 kts 89°
2026-04-25 20:32 34.14061 -118.58620 11794 ft 261 kts 89°
2026-04-25 20:33 34.14207 -118.56448 11806 ft 261 kts 89°
2026-04-25 20:33 34.14349 -118.54250 11819 ft 262 kts 89°
2026-04-25 20:33 34.14487 -118.52075 11834 ft 261 kts 89°
2026-04-25 20:33 34.14582 -118.50623 11841 ft 262 kts 89°
2026-04-25 20:34 34.14771 -118.47709 11861 ft 262 kts 89°
2026-04-25 20:34 34.14911 -118.45521 11876 ft 262 kts 89°
2026-04-25 20:34 34.15050 -118.43328 11891 ft 262 kts 89°
2026-04-25 20:34 34.15187 -118.41138 11905 ft 262 kts 89°
2026-04-25 20:35 34.15330 -118.38944 11919 ft 263 kts 89°
2026-04-25 20:35 34.15472 -118.36737 11933 ft 263 kts 89°
2026-04-25 20:35 34.15618 -118.34537 11952 ft 262 kts 90°
2026-04-25 20:35 34.15764 -118.32364 11960 ft 263 kts 89°
2026-04-25 20:36 34.15912 -118.30170 11968 ft 263 kts 90°
2026-04-25 20:36 34.16065 -118.27966 11973 ft 263 kts 89°
2026-04-25 20:36 34.16216 -118.25755 11979 ft 264 kts 89°
2026-04-25 20:36 34.16369 -118.23551 11986 ft 264 kts 89°
2026-04-25 20:37 34.16526 -118.21337 11994 ft 264 kts 89°
2026-04-25 20:37 34.16676 -118.19157 12002 ft 264 kts 89°
2026-04-25 20:37 34.16788 -118.16961 11993 ft 261 kts 99°
2026-04-25 20:37 34.16455 -118.14841 11984 ft 251 kts 120°
2026-04-25 20:38 34.15786 -118.12902 11996 ft 251 kts 120°
2026-04-25 20:38 34.15110 -118.10927 12003 ft 252 kts 120°
2026-04-25 20:38 34.14440 -118.08983 12010 ft 252 kts 119°
2026-04-25 20:38 34.13767 -118.07040 12015 ft 252 kts 119°
2026-04-25 20:39 34.13093 -118.05080 12028 ft 253 kts 119°
2026-04-25 20:39 34.12415 -118.03111 12041 ft 262 kts 119°
2026-04-25 20:39 34.11680 -118.01000 12094 ft 277 kts 119°
2026-04-25 20:39 34.11171 -117.99563 12143 ft 284 kts 120°
2026-04-25 20:40 34.10124 -117.96592 12261 ft 293 kts 119°
2026-04-25 20:40 34.09325 -117.94320 12370 ft 297 kts 119°
2026-04-25 20:40 34.08511 -117.92018 12483 ft 300 kts 119°
2026-04-25 20:40 34.07693 -117.89699 12596 ft 302 kts 119°
2026-04-25 20:41 34.06878 -117.87354 12715 ft 304 kts 119°
2026-04-25 20:41 34.06067 -117.85017 12835 ft 305 kts 119°
2026-04-25 20:41 34.05249 -117.82668 12946 ft 306 kts 119°
2026-04-25 20:41 34.04420 -117.80297 12920 ft 312 kts 119°
2026-04-25 20:42 34.03560 -117.77866 12882 ft 316 kts 119°
2026-04-25 20:42 34.02687 -117.75419 12844 ft 319 kts 119°
2026-04-25 20:42 34.01815 -117.72982 12810 ft 320 kts 119°
2026-04-25 20:42 34.00937 -117.70526 12768 ft 316 kts 119°
2026-04-25 20:43 34.00075 -117.68105 12721 ft 311 kts 119°
2026-04-25 20:43 33.99238 -117.65746 12673 ft 308 kts 119°
2026-04-25 20:43 33.98399 -117.63381 12623 ft 307 kts 119°
2026-04-25 20:43 33.97563 -117.61021 12566 ft 306 kts 118°
2026-04-25 20:44 33.96727 -117.58662 12515 ft 305 kts 118°
2026-04-25 20:44 33.95902 -117.56333 12460 ft 304 kts 118°
2026-04-25 20:44 33.95071 -117.53990 12407 ft 304 kts 118°
2026-04-25 20:44 33.94241 -117.51649 12355 ft 303 kts 118°
2026-04-25 20:45 33.93415 -117.49320 12268 ft 304 kts 118°
2026-04-25 20:45 33.92588 -117.46986 11695 ft 303 kts 118°
2026-04-25 20:45 33.91758 -117.44653 10954 ft 307 kts 117°
2026-04-25 20:45 33.90922 -117.42311 10228 ft 307 kts 116°
2026-04-25 20:46 33.90104 -117.39983 9463 ft 299 kts 112°
2026-04-25 20:46 33.89811 -117.37555 8704 ft 295 kts 98°
2026-04-25 20:46 33.89735 -117.35118 7955 ft 289 kts 90°
2026-04-25 20:46 33.89772 -117.32758 7205 ft 284 kts 90°
2026-04-25 20:47 33.89805 -117.30418 6440 ft 272 kts 90°
2026-04-25 20:47 33.89837 -117.28223 5684 ft 260 kts 90°
2026-04-25 20:47 33.89868 -117.26104 4918 ft 253 kts 90°
2026-04-25 20:47 33.89899 -117.24026 4543 ft 237 kts 90°
2026-04-25 20:48 33.89925 -117.22171 4674 ft 215 kts 90°
2026-04-25 20:48 33.89949 -117.20306 4901 ft 234 kts 90°
2026-04-25 20:48 33.89970 -117.18283 5134 ft 250 kts 90°
2026-04-25 20:48 33.89992 -117.16144 5367 ft 261 kts 90°
2026-04-25 20:49 33.90017 -117.13921 5489 ft 273 kts 90°
2026-04-25 20:49 33.90038 -117.11597 5544 ft 283 kts 90°
2026-04-25 20:49 33.90058 -117.09293 5808 ft 272 kts 90°
2026-04-25 20:49 33.90078 -117.07062 6161 ft 261 kts 90°
2026-04-25 20:50 33.90099 -117.04908 6440 ft 257 kts 90°
2026-04-25 20:50 33.90123 -117.02753 6502 ft 262 kts 90°
2026-04-25 20:50 33.90145 -117.00540 6568 ft 265 kts 90°
2026-04-25 20:50 33.90170 -116.98289 6585 ft 270 kts 89°
2026-04-25 20:51 33.90196 -116.96014 6600 ft 274 kts 89°
2026-04-25 20:51 33.90220 -116.93710 6598 ft 276 kts 89°
2026-04-25 20:51 33.90243 -116.91422 6599 ft 277 kts 90°
2026-04-25 20:51 33.90269 -116.89091 6602 ft 278 kts 89°
2026-04-25 20:52 33.90295 -116.86781 6612 ft 279 kts 89°
2026-04-25 20:52 33.90313 -116.85202 6611 ft 279 kts 89°
2026-04-25 20:52 33.90324 -116.82167 6561 ft 272 kts 91°
2026-04-25 20:52 33.90269 -116.79865 6369 ft 274 kts 92°
2026-04-25 20:53 33.90203 -116.77601 6213 ft 273 kts 92°
2026-04-25 20:53 33.90137 -116.75353 6025 ft 268 kts 92°
2026-04-25 20:53 33.90082 -116.73098 5749 ft 267 kts 92°
2026-04-25 20:53 33.90022 -116.70870 5391 ft 270 kts 94°
2026-04-25 20:54 33.89869 -116.68613 5122 ft 267 kts 95°
2026-04-25 20:54 33.89754 -116.66444 4863 ft 259 kts 94°
2026-04-25 20:54 33.89688 -116.64298 4475 ft 259 kts 92°
2026-04-25 20:54 33.89342 -116.62194 4257 ft 250 kts 113°
2026-04-25 20:55 33.88597 -116.60333 3779 ft 252 kts 117°
2026-04-25 20:55 33.87786 -116.58480 3214 ft 245 kts 120°
2026-04-25 20:55 33.86946 -116.56799 2857 ft 225 kts 127°
2026-04-25 20:55 33.85844 -116.55649 2734 ft 200 kts 150°
2026-04-25 20:56 33.84654 -116.54809 2417 ft 194 kts 153°
2026-04-25 20:56 33.83475 -116.54082 2212 ft 177 kts 154°
2026-04-25 20:56 33.82542 -116.53446 2191 ft 137 kts 152°
2026-04-25 20:56 33.81778 -116.52906 1906 ft 122 kts 152°
2026-04-25 20:57 33.81077 -116.52396 1627 ft 114 kts 153°
2026-04-25 20:57 33.80394 -116.51955 1451 ft 107 kts 154°
2026-04-25 20:57 33.79749 -116.51540 1303 ft 100 kts 158°
2026-04-25 20:57 33.79124 -116.51172 1312 ft 101 kts 157°
2026-04-25 20:58 33.78476 -116.50768 1516 ft 112 kts 156°
2026-04-25 20:58 33.77825 -116.50198 1792 ft 124 kts 137°
2026-04-25 20:58 33.77284 -116.49338 1963 ft 136 kts 124°
2026-04-25 20:58 33.76888 -116.48243 2008 ft 144 kts 111°
2026-04-25 20:59 33.76557 -116.47122 2045 ft 144 kts 113°
2026-04-25 20:59 33.76212 -116.45982 2052 ft 144 kts 105°
2026-04-25 20:59 33.76270 -116.44795 1914 ft 148 kts 69°
2026-04-25 20:59 33.76702 -116.43687 1911 ft 144 kts 64°
2026-04-25 21:00 33.77156 -116.42618 1964 ft 144 kts 62°
2026-04-25 21:00 33.77307 -116.42259 2039 ft 143 kts 62°
2026-04-25 21:00 33.78946 -116.41975 1758 ft 112 kts 286°
2026-04-25 21:01 33.79104 -116.42856 1602 ft 105 kts 273°
2026-04-25 21:01 33.79154 -116.43716 1474 ft 103 kts 271°
2026-04-25 21:01 33.79202 -116.44543 1454 ft 87 kts 270°
2026-04-25 21:01 33.79303 -116.45235 1347 ft 84 kts 282°
2026-04-25 21:02 33.79438 -116.45910 1255 ft 83 kts 282°
2026-04-25 21:02 33.79592 -116.46587 1164 ft 85 kts 281°
2026-04-25 21:02 33.79824 -116.47261 1082 ft 88 kts 292°
2026-04-25 21:02 33.80092 -116.47901 1021 ft 86 kts 295°
2026-04-25 21:03 33.80487 -116.48473 897 ft 91 kts 308°
2026-04-25 21:03 33.80985 -116.48972 726 ft 93 kts 317°
2026-04-25 21:03 33.81500 -116.49450 576 ft 93 kts 316°
2026-04-25 21:03 33.82010 -116.49912 448 ft 90 kts 318°
2026-04-25 21:04 33.82471 -116.50324 446 ft 75 kts 318°
2026-04-25 21:04 33.82836 -116.50658 457 ft 57 kts 323°
2026-04-25 21:04 33.83122 -116.50905 468 ft 44 kts 323°
2026-04-25 21:04 33.83345 -116.51104 474 ft 36 kts 323°
2026-04-25 21:05 33.83514 -116.51254 484 ft 25 kts 322°
2026-04-25 21:05 33.83646 -116.51371 490 ft 21 kts 326°
2026-04-25 21:05 33.83702 -116.51366 491 ft 6 kts 39°
2026-04-25 21:05 33.83736 -116.51298 490 ft 6 kts 92°
2026-04-25 21:06 33.83715 -116.51264 489 ft 0 kts 142°
2026-04-25 21:06 33.83713 -116.51261 489 ft 0 kts 96°
2026-04-25 21:06 33.83714 -116.51256 489 ft 3 kts 116°
2026-04-25 21:06 33.83713 -116.51254 489 ft 0 kts 127°
2026-04-25 21:08 33.83687 -116.51239 488 ft 13 kts 151°
2026-04-25 21:08 33.83559 -116.51130 482 ft 29 kts 142°
2026-04-25 21:09 33.83208 -116.50819 468 ft 25 kts 142°
2026-04-25 21:09 33.83142 -116.50760 466 ft 0 kts 129°
2026-04-25 21:09 33.83137 -116.50755 466 ft 0 kts 134°
2026-04-25 21:11 33.83115 -116.50725 465 ft 9 kts 107°
2026-04-25 21:12 33.83160 -116.50636 463 ft 16 kts 51°
2026-04-25 21:12 33.83144 -116.50538 461 ft 14 kts 141°
2026-04-25 21:12 33.83048 -116.50448 457 ft 19 kts 145°
2026-04-25 21:12 33.82971 -116.50382 455 ft 21 kts 140°
2026-04-25 21:13 33.82794 -116.50223 449 ft 25 kts 142°
2026-04-25 21:13 33.82647 -116.50099 444 ft 24 kts 144°
2026-04-25 21:13 33.82521 -116.49983 439 ft 21 kts 141°
2026-04-25 21:13 33.82479 -116.49921 438 ft 4 kts 152°
2026-04-25 21:14 33.82455 -116.49909 437 ft 9 kts 154°
2026-04-25 21:14 33.82360 -116.49834 434 ft 15 kts 125°
2026-04-25 21:14 33.82347 -116.49775 432 ft 0 kts 109°
2026-04-25 21:14 33.82347 -116.49774 432 ft 0 kts 111°
2026-04-25 21:15 33.82330 -116.49769 432 ft 4 kts 182°
2026-04-25 21:15 33.82265 -116.49725 431 ft 12 kts 127°
2026-04-25 21:15 33.82250 -116.49684 430 ft 0 kts 20°